Depoe Bay, OR (97341)

2:04 AM PST on February 12, 2016 (GMT -0800)
StoneBridge | | Change Station
CLOSE
Current Station
Personal Weather Station
Location: Depoe Bay, OR
Elevation: 115 ft
Nearby Weather Stations

Elev 115 ft 44.81 °N, 124.05 °W | Updated 28 seconds ago

Overcast
Overcast
54.9 °F
Feels Like 54.9 °F
N
4.9
Wind Variable Wind from SSE
Gusts 4.9 mph

Today
High -- | Low -- °F
--% Chance of Precip.
Yesterday
High -- | Low -- °F
Precip. -- in
Pressure 30.16 in
Visibility 4.0 miles
Clouds Mostly Cloudy 900 ft
Overcast 1800 ft
Dew Point 30 °F
Humidity 39%
Rainfall 0.00 in
Snow Depth Not available.
7:21 AM 5:39 PM
Waxing Crescent, 19% visible
METAR KONP 120955Z AUTO 19011KT 4SM BR BKN009 OVC018 12/11 A3016 RMK AO2
Pressure 30.16 in
Visibility 4.0 miles
Clouds Mostly Cloudy 900 ft
Overcast 1800 ft
Dew Point 30 °F
Humidity 39%
Rainfall 0.00 in
Snow Depth Not available.
7:21 AM 5:39 PM
Waxing Crescent, 19% visible
METAR KONP 120955Z AUTO 19011KT 4SM BR BKN009 OVC018 12/11 A3016 RMK AO2

10-Day Weather Forecast

Almanac

Astronomy

Feb. 12, 2016 Rise Set
Actual Time
Civil Twilight
Nautical Twilight
Astronomical Twilight
Moon
Length of Visible Light
Length of Day
Tomorrow will be .
, % of the Moon is Illuminated

Today's Extremes

State Highs State Lows

Community

WunderPhotos

Upload Photos

1,892,287 photos uploaded!

WunderBlog® & News

Nearby

Air Quality

  Air Quality AQ Index Pollutant
Not available.

Snow Depth

Station Depth Elevation

Earthquake Activity

City Distance Mag. Time & Date
Minimum magnitude displayed is 2.5.

Coastal Water Temperatures

Place Temperature

Stations

Nearby Weather Stations

Station Location Temp. Windchill Dew Point Humidity Wind Precip. Elev Updated Type
                   

Watches & Warnings

There are currently no watches in effect.